Change the Weather History Date:

Sunday, September 8, 2013

  Actual Average Record
Temperature  
Mean Temperature 85 °F 82 °F  
Max Temperature 95 °F 93 °F 101 °F (1993)
Min Temperature 74 °F 72 °F 54 °F (1918)
Degree Days  
Heating Degree Days 0 0  
Month to date heating degree days 0 0  
Since 1 July heating degree days 0 0  
Cooling Degree Days 20 17  
Month to date cooling degree days 188 144  
Year to date cooling degree days 2798 2538  
Growing Degree Days 33 (Base 50)    
Moisture  
Dew Point 70 °F    
Average Humidity 64    
Maximum Humidity 87    
Minimum Humidity 41    
Precipitation  
Precipitation 0.08 in 0.12 in 3.17 in (1994)
Month to date precipitation 0.18 0.91  
Year to date precipitation 17.96 23.00  
Snow  
Snow 0.00 in - - ()
Month to date snowfall 0.0  
Since 1 July snowfall 0.0  
Since 1 September snowfall 0.0  
Snow Depth 0.00 in    
Sea Level Pressure  
Sea Level Pressure 29.94 in    
Wind  
Wind Speed 3 mph (SE)    
Max Wind Speed 20 mph    
Max Gust Speed 26 mph    
Visibility 10 miles    
Events Rain , Thunderstorm    
T = Trace of Precipitation, MM = Missing Value Source: NWS Daily Summary

Daily Weather History Graph

Daily Weather History Graph

Search for Another Location

Airport or City:

Trip Planner

Search our weather history database for the weather conditions in past years. The results will help you decide how hot, cold, wet, or windy it might be!

Date:

Astronomy

Sep. 08, 2013 Rise Set
Actual Time 7:11 AM CDT 7:44 PM CDT
Civil Twilight 6:47 AM CDT 8:09 PM CDT
Nautical Twilight 6:19 AM CDT 8:37 PM CDT
Astronomical Twilight 5:50 AM CDT 9:06 PM CDT
Moon 10:13 AM CDT (9/8) 9:40 PM CDT (9/8)
Length of Visible Light 13h 21m
Length of Day
12h 33m
Waxing Crescent, 11% of the Moon is Illuminated
Sep 8
Waxing Crescent
Sep 12
First Quarter
Sep 19
Full
Sep 26
Last Quarter
Oct 4
New

Hourly Weather History & Observations

Time (CDT) Temp. Heat Index Dew Point Humidity Pressure Visibility Wind Dir Wind Speed Gust Speed Precip Events Conditions
12:51 AM 77.0 °F - 71.1 °F 82% 29.94 in 10.0 mi SSE 3.5 mph - N/A   Partly Cloudy
1:06 AM 78.1 °F - 71.1 °F 79% 29.99 in 10.0 mi Calm Calm - N/A   Mostly Cloudy
1:51 AM 78.1 °F - 71.1 °F 79% 29.94 in 10.0 mi Calm Calm - N/A   Overcast
2:20 AM 77.0 °F - 71.1 °F 82% 29.98 in 10.0 mi Calm Calm - N/A   Scattered Clouds
2:48 AM 75.2 °F - 71.6 °F 89% 29.98 in 10.0 mi Calm Calm - N/A   Mostly Cloudy
2:51 AM 75.9 °F - 71.1 °F 85% 29.94 in 10.0 mi Calm Calm - N/A   Mostly Cloudy
2:58 AM 75.9 °F - 71.1 °F 85% 29.98 in 10.0 mi Calm Calm - N/A   Scattered Clouds
3:51 AM 75.0 °F - 70.0 °F 84% 29.92 in 10.0 mi Calm Calm - N/A   Clear
4:51 AM 73.9 °F - 70.0 °F 87% 29.92 in 10.0 mi Calm Calm - N/A   Clear
5:49 AM 75.2 °F - 71.6 °F 89% 29.98 in 10.0 mi Calm Calm - N/A   Mostly Cloudy
5:51 AM 75.0 °F - 71.1 °F 87% 29.95 in 10.0 mi Calm Calm - N/A   Mostly Cloudy
6:51 AM 75.9 °F - 71.1 °F 85% 29.95 in 10.0 mi Calm Calm - N/A   Overcast
7:08 AM 75.0 °F - 70.0 °F 84% 29.98 in 10.0 mi Calm Calm - N/A   Scattered Clouds
7:51 AM 75.0 °F - 70.0 °F 84% 29.96 in 10.0 mi Calm Calm - N/A   Partly Cloudy
8:04 AM 75.9 °F - 70.0 °F 82% 30.00 in 10.0 mi Calm Calm - N/A   Mostly Cloudy
8:51 AM 77.0 °F - 70.0 °F 79% 29.98 in 10.0 mi ESE 4.6 mph - N/A   Overcast
9:02 AM 77.0 °F - 70.0 °F 79% 30.01 in 10.0 mi East 4.6 mph - N/A   Overcast
9:51 AM 79.0 °F - 72.0 °F 79% 29.98 in 10.0 mi Variable 3.5 mph - N/A   Overcast
10:21 AM 82.0 °F 86.7 °F 72.0 °F 71% 30.02 in 10.0 mi Variable 3.5 mph - N/A   Overcast
10:51 AM 84.0 °F 89.0 °F 71.1 °F 65% 29.98 in 10.0 mi Variable 3.5 mph - N/A   Mostly Cloudy
11:04 AM 82.9 °F 87.5 °F 71.1 °F 67% 30.01 in 10.0 mi Variable 3.5 mph - N/A   Mostly Cloudy
11:51 AM 84.0 °F 89.0 °F 71.1 °F 65% 29.97 in 10.0 mi SE 5.8 mph - N/A   Scattered Clouds
12:51 PM 90.0 °F 93.6 °F 68.0 °F 48% 29.94 in 10.0 mi Variable 4.6 mph - N/A   Partly Cloudy
1:51 PM 91.9 °F 95.4 °F 66.9 °F 44% 29.91 in 10.0 mi ESE 8.1 mph - N/A   Partly Cloudy
2:51 PM 93.0 °F 95.9 °F 66.0 °F 41% 29.89 in 10.0 mi Variable 3.5 mph - N/A   Mostly Cloudy
3:20 PM 82.9 °F 87.0 °F 70.0 °F 65% 29.93 in 1.5 mi SSE 9.2 mph 26.5 mph 0.02 in Rain Rain
3:29 PM 81.0 °F 85.8 °F 73.0 °F 77% 29.93 in 3.0 mi Variable 4.6 mph - 0.08 in Rain Light Rain
3:51 PM 84.0 °F 91.9 °F 75.0 °F 74% 29.88 in 10.0 mi South 3.5 mph - 0.08 in   Partly Cloudy
4:51 PM 86.0 °F 91.5 °F 71.1 °F 61% 29.86 in 10.0 mi Variable 3.5 mph - N/A   Clear
5:06 PM 86.0 °F 91.5 °F 71.1 °F 61% 29.89 in 10.0 mi SSW 4.6 mph - N/A Thunderstorm Thunderstorm
5:39 PM 86.0 °F 90.7 °F 70.0 °F 59% 29.90 in 10.0 mi Variable 3.5 mph - N/A   Clear
5:51 PM 87.1 °F 91.3 °F 69.1 °F 55% 29.86 in 10.0 mi Variable 3.5 mph - N/A   Clear
6:51 PM 84.0 °F 88.4 °F 70.0 °F 63% 29.89 in 10.0 mi Variable 5.8 mph - N/A   Scattered Clouds
7:51 PM 82.9 °F 87.0 °F 70.0 °F 65% 29.91 in 10.0 mi Variable 4.6 mph - N/A   Clear
8:51 PM 82.9 °F 86.5 °F 69.1 °F 63% 29.91 in 10.0 mi SSE 6.9 mph - N/A   Partly Cloudy
9:51 PM 81.0 °F 84.1 °F 69.1 °F 67% 29.92 in 10.0 mi SSE 8.1 mph - N/A   Mostly Cloudy
10:51 PM 80.1 °F 83.2 °F 70.0 °F 71% 29.93 in 10.0 mi SSE 5.8 mph - N/A   Clear
11:51 PM 78.1 °F - 70.0 °F 76% 29.92 in 10.0 mi Variable 6.9 mph - N/A   Clear